SCP
0 0 0 0 0 0 0 0 0 0 0 0 0 0 0 0 0 0 0 0 0 0 0 0 0 0 0 0 0 0 0 0 0 0 0 0 0 0 0 0 0 0 0
0 0 0 0 0 0 0 0 0 0 0 0 0 0 0 0 0 0 0 0 0 0 0 0 0 0 0 0 0 0 0 0 0 0 0 0 0 0 0 0 0 0 0
0 0 0 0 0 0 0 0 0 0 0 0 0 0 0 0 0 0 0 0 0 0 0 0 0 0 0 0 0 0 0 0 0 0 0 0 0 0 0 0 0 0 0
0 0 0 0 0 0 0 0 0 0 0 0 0 0 0 0 0 0 0 0 0 0 0 0 0 0 0 0 0 0 0 0 0 0 0 0 0 0 0 0 0 0 0
0 0 0 0 0 0 0 0 0 0 0 0 0 0 0 0 0 0 0 0 0 0 0 0 0 0 0 0 0 0 0 0 0 0 0 0 0 0 0 0 0 0 0
0 0 0 0 0 0 0 0 0 0 0 0 0 0 0 0 0 0 0 0 0 0 0 0 0 0 0 0 0 0 0 0 0 0 0 0 0 0 0 0 0 0 0
0 0 0 0 0 0 0 0 0 0 0 0 0 0 0 0 0 0 0 0 0 0 0 0 0 -0 0 0 0 0 0 0 0 0 0 0 0 0 0 0 0 0 0
1 0 0 0 0 0 0 0 0 0 0 0 0 0 0 0 0 0 -0 -0 -0 -0 -0 -0 -0 -0 -0 0 0 0 0 0 0 0 0 0 0 0 0 0 0 0 0
1 0 0 0 0 0 0 0 0 0 0 0 0 0 0 0 0 -0 -0 -0 -0 -0 -0 -0 -0 -0 -0 0 0 0 0 0 0 0 0 0 0 0 0 0 0 0 0
1 0 0 0 0 0 0 0 0 0 0 0 0 0 0 0 -0 -0 -0 -0 -0 -0 -0 -0 -0 -0 0 0 0 0 0 0 0 0 0 0 0 0 0 0 0 0 0
1 1 0 0 0 0 0 0 0 0 0 0 0 0 0 -0 -0 -0 -0 -0 -0 -0 -0 -0 -0 -0 0 0 0 0 0 0 0 0 0 0 0 0 0 0 0 0 0
1 1 0 0 0 0 0 0 0 0 0 0 0 -0 -0 -0 -0 -0 -0 -0 -0 -0 -0 -0 -0 -0 0 0 0 0 0 0 0 0 0 0 0 0 0 0 0 0 0
1 1 0 0 0 0 0 0 0 0 0 0 0 -0 -0 -0 -0 -0 -0 -0 -0 -0 -0 -0 -0 -0 0 0 0 0 0 0 0 0 0 0 0 0 0 0 0 0 0
1 1 1 0 0 0 0 0 0 0 0 0 0 0 0 0 0 -0 -0 -0 -0 -0 -0 -0 -0 -0 0 0 0 0 0 0 0 0 0 0 0 0 0 0 0 0 0
1 1 1 0 0 0 0 0 0 0 0 0 0 0 0 0 0 0 -0 -0 -0 -0 -0 -0 -0 -0 0 0 0 0 0 0 0 0 0 0 0 0 0 0 0 0 0
1 1 1 1 0 0 0 0 0 0 0 0 0 0 0 0 0 0 0 -0 -0 -0 -0 -0 -0 0 0 0 0 0 0 0 0 0 0 0 0 0 0 0 0 0 0
1 1 1 1 0 0 0 0 0 0 0 0 0 0 0 0 0 0 0 0 -0 -0 -0 0 0 0 0 0 0 0 0 0 0 0 0 0 0 0 0 0 0 0 0
1 1 1 1 1 0 0 0 0 0 0 0 0 0 0 0 0 0 0 0 0 0 0 0 0 0 0 0 0 0 0 0 0 0 0 0 0 0 0 0 0 0 0
1 1 1 1 1 1 0 0 0 0 0 0 0 0 0 0 0 0 0 0 0 0 0 0 0 0 0 0 0 0 0 0 0 0 0 0 0 0 0 0 0 0 0
1 1 1 1 1 1 1 0 0 0 0 0 0 0 0 0 0 0 0 0 0 0 0 0 0 0 0 0 0 0 0 0 0 0 0 0 0 0 0 0 0 0 0
1 1 1 1 1 1 1 0 0 0 0 0 0 0 0 0 0 0 0 0 0 0 0 0 0 0 0 0 0 0 0 0 0 0 0 0 0 0 0 0 0 0 0
1 1 1 1 1 1 1 0 0 0 0 0 0 0 0 0 0 0 0 0 0 0 0 0 0 0 0 0 0 0 0 0 0 0 0 0 0 0 0 0 0 0 0
1 1 1 1 1 1 1 0 0 0 0 0 0 0 0 0 0 0 0 0 0 0 0 0 0 0 0 0 0 0 0 0 0 0 0 0 0 0 0 0 0 0 0
1 1 1 1 1 0 0 0 0 0 0 0 0 0 0 0 0 0 0 0 0 0 0 0 0 0 0 0 0 0 0 0 0 0 0 0 0 0 0 0 0 0 0
1 1 1 1 1 0 0 0 0 0 0 0 0 0 0 0 0 0 0 0 0 0 0 0 0 0 0 0 0 0 0 0 0 0 0 0 0 0 0 0 0 0 0
1 1 1 1 0 0 0 0 0 0 0 0 0 0 0 0 0 0 0 0 0 0 0 0 0 0 0 0 0 0 0 0 0 0 0 0 0 0 0 0 0 0 0
Wind_Speed
7 9 15 16 16 16 16 16 16 16 16 16 16 16 16 16 15 15 15 14 13 13 13 13 13 13 13 14 14 14 14 14 15 15 15 15 15 16 17 17 16 11 17
12 11 17 16 16 16 16 15 15 15 15 15 15 15 15 14 14 14 14 13 13 13 12 12 13 13 13 13 14 14 14 14 14 15 15 14 15 16 16 16 15 10 16
14 11 15 16 16 16 16 15 15 15 14 14 14 14 14 14 14 14 13 13 13 12 12 12 13 13 13 13 13 13 14 13 14 15 13 7 9 15 16 16 16 16 15
14 10 13 17 17 17 16 15 15 14 14 14 13 13 13 13 13 13 13 13 12 12 12 12 12 12 12 12 12 12 12 13 14 14 6 5 7 14 15 15 15 15 15
12 10 13 19 18 17 16 15 15 14 14 13 13 13 13 13 13 13 13 13 12 12 12 12 12 12 11 11 11 10 11 12 14 10 6 5 5 13 15 15 15 14 14
12 10 14 19 18 17 17 16 15 14 14 13 13 13 13 13 13 13 13 13 12 12 12 12 12 12 11 10 10 10 10 12 11 6 6 5 5 12 14 14 14 14 14
13 9 13 19 18 17 17 16 15 14 13 13 13 13 13 13 13 13 13 13 12 12 12 12 11 11 10 10 9 9 9 12 8 6 5 5 6 11 13 13 13 13 13
15 11 12 18 18 17 17 16 15 14 14 13 13 13 13 13 13 13 13 12 12 12 11 11 11 10 9 8 8 8 9 12 10 8 5 4 8 11 12 12 12 13 13
14 12 9 11 13 17 17 16 15 14 14 13 13 13 13 13 13 13 12 12 11 11 10 10 9 9 8 7 7 7 9 12 7 5 7 4 9 11 12 12 12 12 12
11 10 8 7 7 8 10 15 15 15 14 13 13 13 13 13 12 12 10 11 11 10 10 9 8 8 6 6 6 7 9 10 5 5 4 6 11 12 12 12 12 12 12
11 9 9 8 7 7 7 12 12 13 13 12 11 13 11 5 5 6 9 10 10 9 9 8 7 6 5 4 6 8 8 4 5 4 3 9 11 12 12 11 11 11 11
14 11 10 10 9 8 8 6 4 5 6 5 4 6 4 4 3 6 8 10 9 8 7 6 6 4 3 2 3 6 3 5 5 3 4 11 11 11 11 11 11 11 11
15 14 11 11 9 8 5 6 3 3 3 4 5 5 4 3 3 3 2 4 4 5 2 3 2 1 1 1 2 2 4 4 3 3 5 11 11 12 11 11 11 10 10
14 13 12 11 10 8 7 6 5 4 4 4 4 5 4 3 3 3 2 2 2 1 2 1 0 1 1 1 3 4 4 3 3 2 5 12 11 11 11 11 10 10 10
15 14 13 12 10 8 7 6 7 5 5 5 5 5 6 4 4 4 3 2 2 2 2 2 1 1 1 1 2 4 5 5 6 4 4 12 11 10 11 11 11 10 10
14 14 12 13 11 10 7 6 6 5 5 5 5 6 7 5 5 4 3 3 3 3 3 3 3 2 1 2 2 4 5 5 5 5 3 6 11 10 10 11 11 10 10
14 12 12 12 11 10 8 7 6 5 5 5 5 6 6 6 6 5 4 4 3 3 3 2 2 1 1 2 2 3 4 5 5 5 4 3 4 9 10 10 10 10 10
12 12 12 12 11 9 7 6 5 4 5 5 5 5 6 7 7 5 4 4 4 3 3 3 2 2 1 1 2 2 3 3 5 6 5 4 3 4 7 11 10 10 11
12 12 11 10 11 9 7 5 5 4 4 4 4 4 5 6 7 5 4 4 4 3 3 3 2 2 2 2 2 2 2 3 4 6 6 6 5 5 4 8 11 10 12
10 10 10 9 9 8 6 4 4 3 3 3 4 5 6 5 6 5 4 4 4 3 2 2 3 2 2 2 2 1 1 2 3 4 6 5 5 6 5 5 5 7 12
8 9 10 10 9 7 5 4 4 3 3 3 3 5 6 6 6 5 4 4 4 4 4 4 3 2 1 2 2 1 2 1 2 3 3 4 5 6 5 5 4 3 4
10 9 9 10 9 8 5 4 3 3 3 3 3 4 5 5 6 6 5 4 4 4 4 3 3 2 1 2 3 2 1 3 2 2 3 4 4 3 5 7 5 5 4
10 11 10 10 9 8 7 4 3 2 2 2 2 3 4 5 5 5 6 5 4 4 4 4 4 4 2 1 2 4 3 3 2 2 2 2 3 4 4 4 6 6 6
10 9 9 9 9 8 7 7 7 5 4 5 4 4 4 5 5 5 6 6 5 4 4 4 4 3 4 2 1 1 3 4 3 1 2 1 2 3 4 4 5 5 5
9 9 9 9 8 7 7 8 7 5 4 3 3 4 4 3 4 5 5 5 5 4 4 4 4 4 3 3 2 2 1 1 2 3 1 2 1 1 2 3 2 3 4
7 8 8 8 8 8 7 7 7 7 5 5 5 5 4 3 3 4 4 5 5 4 5 5 5 5 4 4 3 2 3 2 2 3 2 2 1 1 1 1 2 2 2
Wind_Direction
145 148 142 134 128 124 120 115 110 106 103 101 100 100 100 102 105 109 112 113 112 111 111 112 112 110 110 110 110 110 112 112 114 116 116 116 117 115 112 111 109 109 113
144 146 141 136 131 127 124 120 116 112 109 107 105 105 105 106 107 109 112 113 112 112 113 113 113 113 112 112 112 112 113 114 115 114 113 114 115 114 114 113 112 116 115
138 141 140 137 133 130 128 125 121 118 115 113 111 110 110 110 110 111 111 112 113 114 115 116 116 115 115 114 115 114 114 114 113 111 107 101 111 114 114 115 114 114 114
136 137 140 138 135 133 131 129 126 122 120 118 117 116 114 114 113 113 114 115 115 116 116 116 117 116 116 117 117 116 117 118 117 112 100 100 111 116 116 115 115 116 115
133 134 142 139 137 136 134 131 129 126 125 122 121 119 119 119 117 117 117 117 118 118 118 117 116 116 117 117 116 116 116 119 118 108 95 91 102 119 119 118 117 117 116
134 135 143 140 139 138 136 134 132 130 128 126 124 124 123 122 121 120 118 117 117 117 117 118 117 116 115 114 115 115 113 117 113 105 100 101 108 122 122 121 120 119 118
135 137 143 142 141 141 139 138 137 135 133 131 129 127 126 125 123 122 120 119 118 117 117 118 118 117 115 113 113 115 115 120 116 111 107 106 117 124 123 122 122 122 121
140 141 144 145 145 144 143 142 141 140 138 137 135 132 129 127 126 125 124 123 122 120 118 118 117 116 114 109 107 114 117 124 123 119 110 109 124 125 125 124 125 126 126
141 142 143 147 148 149 148 147 146 144 143 142 139 136 134 132 131 131 129 128 126 124 122 120 118 115 112 108 105 112 120 125 123 126 127 121 127 129 129 130 129 129 128
141 142 142 144 144 146 149 151 151 149 149 146 143 141 140 138 136 135 132 133 131 128 126 123 120 118 115 107 107 117 118 123 125 123 124 136 136 136 135 135 133 132 131
147 149 148 149 146 144 150 158 154 153 154 152 150 149 140 127 127 133 142 141 137 134 133 131 129 127 117 102 104 115 110 113 124 123 133 143 144 142 141 141 140 139 138
159 162 159 157 157 157 161 147 149 154 153 148 150 142 131 135 147 147 155 150 147 144 141 140 139 130 104 83 100 110 105 117 123 135 146 149 150 148 146 146 146 145 144
163 164 164 163 164 167 154 150 156 151 152 155 160 154 149 147 149 137 140 147 146 147 133 139 129 87 108 120 118 121 125 121 135 149 157 156 156 155 153 152 152 151 150
165 167 165 166 168 171 160 164 165 164 168 170 174 168 155 149 147 150 149 152 150 144 156 157 159 231 195 164 143 140 142 136 142 146 168 164 162 161 159 159 159 158 158
165 167 166 165 167 166 164 174 170 174 177 176 172 170 161 157 162 163 164 167 170 166 174 187 200 207 198 165 150 147 146 147 153 163 170 170 169 169 167 167 168 167 168
169 169 167 166 168 164 167 174 168 173 174 171 172 173 167 164 165 163 167 174 180 180 181 185 188 185 179 141 141 149 150 147 155 161 168 175 176 176 175 175 176 177 178
167 166 168 166 164 164 168 173 165 169 170 171 173 174 169 164 165 161 163 172 185 181 177 170 172 149 150 140 138 145 150 155 162 168 170 173 180 186 185 184 185 186 186
162 164 169 169 164 164 161 158 155 161 168 173 169 170 169 163 161 157 161 176 181 170 164 164 158 140 148 154 163 167 158 163 170 175 176 180 181 188 195 194 192 192 193
165 165 164 162 162 162 156 147 152 161 167 169 164 163 169 166 161 156 165 175 169 162 168 176 153 152 158 167 182 181 177 175 178 182 185 190 191 193 194 202 199 198 201
163 161 157 156 158 155 147 138 140 145 159 162 163 167 168 168 161 155 164 173 163 155 165 161 151 153 157 164 172 162 212 203 189 186 194 195 197 200 198 202 200 210 212
157 157 157 157 159 153 149 153 152 159 161 163 172 171 173 168 163 159 161 165 161 162 172 163 148 148 153 133 92 20 345 307 226 208 201 194 202 202 194 199 200 205 217
167 165 160 162 164 165 165 158 153 149 163 164 168 177 177 172 172 172 163 169 167 159 163 162 147 139 165 142 133 107 2 338 316 236 210 200 203 194 198 204 199 205 216
170 170 167 167 168 169 162 141 130 109 98 135 168 185 189 179 178 174 170 172 171 164 169 174 163 153 170 198 152 147 154 219 280 310 254 217 196 192 201 195 200 207 214
173 169 163 165 166 166 161 160 166 170 178 190 182 188 191 184 176 174 173 174 176 171 172 181 171 162 156 177 199 184 169 163 159 277 317 276 216 207 204 208 208 207 209
167 165 165 165 167 167 168 171 175 177 185 176 172 180 187 186 186 180 176 174 177 179 183 181 170 169 162 168 178 173 140 131 139 146 237 299 317 259 212 211 206 209 207
161 163 165 167 172 173 173 174 177 179 177 172 176 179 178 178 194 199 184 182 182 183 187 187 180 175 175 168 169 165 162 159 175 159 180 223 246 285 222 207 210 205 198